When you browse on this site, cookies collect data to enhance your experience and personalize the content and advertising you see.
Visit our Privacy Policy to learn more. By continuing to use the site, you agree to this use of cookies and data.
  • In Czech Republic
  • List of Countries
  • For 7 days
  • Water Temperature
  • Weather Map
  • Weather Widgets
  • user-avatar
    Login

    Hourly Weather Lamu

    Today, 14 November, Thursday

    Time Temperature Precipitation Wind Pressure Humidity
    00:00 +27°C° 0 mm 2 mps 757 mmHg 89%
    01:00 +27°C° 0.1 mm 2 mps 756 mmHg 90%
    02:00 +27°C° 0.1 mm 2 mps 756 mmHg 91%
    03:00 +27°C° 0.1 mm 2 mps 755 mmHg 91%
    04:00 +26°C° 0.3 mm 2 mps 756 mmHg 92%
    05:00 +26°C° 0.3 mm 2 mps 756 mmHg 92%
    06:00 +26°C° 0.3 mm 2 mps 757 mmHg 93%
    07:00 +28°C° 1.2 mm 2 mps 757 mmHg 87%
    08:00 +29°C° 1.2 mm 3 mps 758 mmHg 81%
    09:00 +30°C° 1.2 mm 3 mps 758 mmHg 75%
    10:00 +31°C° 0.1 mm 3 mps 758 mmHg 69%
    11:00 +34°C° 0.1 mm 3 mps 757 mmHg 62%
    12:00 +35°C° 0.1 mm 2 mps 757 mmHg 56%
    13:00 +34°C° 0 mm 3 mps 756 mmHg 57%
    14:00 +34°C° 0 mm 3 mps 755 mmHg 58%
    15:00 +34°C° 0 mm 4 mps 755 mmHg 60%
    16:00 +31°C° 0 mm 3 mps 755 mmHg 66%
    17:00 +30°C° 0 mm 3 mps 755 mmHg 73%
    18:00 +29°C° 0 mm 3 mps 756 mmHg 79%
    19:00 +28°C° 0 mm 3 mps 756 mmHg 81%
    20:00 +28°C° 0 mm 3 mps 757 mmHg 84%
    21:00 +28°C° 0 mm 3 mps 757 mmHg 86%
    22:00 +27°C° 0 mm 3 mps 757 mmHg 88%
    23:00 +27°C° 0 mm 3 mps 757 mmHg 89%

    Tomorrow, 15 November, Friday

    Time Temperature Precipitation Wind Pressure Humidity
    00:00 +27°C° 0 mm 3 mps 757 mmHg 90%
    01:00 +27°C° 0 mm 2 mps 756 mmHg 91%
    02:00 +26°C° 0 mm 2 mps 756 mmHg 92%
    03:00 +26°C° 0 mm 1 mps 755 mmHg 93%
    04:00 +26°C° 0 mm 1 mps 756 mmHg 94%
    05:00 +26°C° 0 mm 1 mps 756 mmHg 94%
    06:00 +26°C° 0 mm 1 mps 756 mmHg 95%
    07:00 +28°C° 0 mm 1 mps 757 mmHg 85%
    08:00 +30°C° 0 mm 1 mps 758 mmHg 75%
    09:00 +32°C° 0 mm 1 mps 758 mmHg 66%
    10:00 +34°C° 0.2 mm 2 mps 757 mmHg 63%
    11:00 +34°C° 0.2 mm 2 mps 757 mmHg 60%
    12:00 +35°C° 0.2 mm 3 mps 756 mmHg 58%
    13:00 +34°C° 0.7 mm 3 mps 755 mmHg 62%
    14:00 +33°C° 0.7 mm 3 mps 755 mmHg 67%
    15:00 +33°C° 0.7 mm 3 mps 754 mmHg 71%
    16:00 +31°C° 0.1 mm 3 mps 754 mmHg 75%
    17:00 +30°C° 0.1 mm 3 mps 754 mmHg 79%
    18:00 +28°C° 0.1 mm 3 mps 754 mmHg 83%
    19:00 +28°C° 0 mm 3 mps 755 mmHg 85%
    20:00 +28°C° 0 mm 3 mps 755 mmHg 87%
    21:00 +27°C° 0 mm 3 mps 756 mmHg 88%
    22:00 +27°C° 0.2 mm 4 mps 756 mmHg 89%
    23:00 +27°C° 0.2 mm 4 mps 755 mmHg 90%

    Day after tomorrow, 16 November, Saturday

    Time Temperature Precipitation Wind Pressure Humidity
    00:00 +27°C° 0.2 mm 4 mps 755 mmHg 90%
    01:00 +27°C° 0 mm 4 mps 755 mmHg 91%
    02:00 +27°C° 0 mm 3 mps 754 mmHg 92%
    03:00 +26°C° 0 mm 3 mps 754 mmHg 93%
    04:00 +26°C° 0.1 mm 3 mps 754 mmHg 94%
    05:00 +26°C° 0.1 mm 3 mps 755 mmHg 94%
    06:00 +26°C° 0.1 mm 3 mps 755 mmHg 95%
    07:00 +28°C° 0.6 mm 3 mps 755 mmHg 87%
    08:00 +29°C° 0.6 mm 4 mps 756 mmHg 80%
    09:00 +32°C° 0.6 mm 4 mps 757 mmHg 72%
    10:00 +33°C° 0.3 mm 4 mps 756 mmHg 67%
    11:00 +34°C° 0.3 mm 4 mps 756 mmHg 63%
    12:00 +35°C° 0.3 mm 5 mps 755 mmHg 58%
    13:00 +34°C° 0.4 mm 5 mps 755 mmHg 61%
    14:00 +34°C° 0.4 mm 5 mps 754 mmHg 64%
    15:00 +33°C° 0.4 mm 5 mps 753 mmHg 66%
    16:00 +32°C° 0.2 mm 5 mps 753 mmHg 72%
    17:00 +30°C° 0.2 mm 5 mps 754 mmHg 78%
    18:00 +28°C° 0.2 mm 4 mps 754 mmHg 84%
    19:00 +28°C° 0 mm 5 mps 754 mmHg 86%
    20:00 +28°C° 0 mm 5 mps 755 mmHg 87%
    21:00 +27°C° 0 mm 5 mps 755 mmHg 88%
    22:00 +27°C° 0.1 mm 5 mps 755 mmHg 89%
    23:00 +27°C° 0.1 mm 4 mps 754 mmHg 90%

    17 November, Sunday

    Time Temperature Precipitation Wind Pressure Humidity
    00:00 +27°C° 0.1 mm 4 mps 754 mmHg 91%
    01:00 +27°C° 0.1 mm 4 mps 754 mmHg 92%
    02:00 +26°C° 0.1 mm 4 mps 754 mmHg 93%
    03:00 +26°C° 0.1 mm 4 mps 754 mmHg 94%
    04:00 +26°C° 0.1 mm 3 mps 754 mmHg 95%
    05:00 +26°C° 0.1 mm 3 mps 755 mmHg 95%
    06:00 +26°C° 0.1 mm 3 mps 755 mmHg 96%
    07:00 +27°C° 0.5 mm 3 mps 756 mmHg 88%
    08:00 +29°C° 0.5 mm 4 mps 756 mmHg 81%
    09:00 +32°C° 0.5 mm 4 mps 757 mmHg 73%
    10:00 +33°C° 0 mm 4 mps 756 mmHg 65%
    11:00 +35°C° 0 mm 4 mps 756 mmHg 58%
    12:00 +36°C° 0 mm 4 mps 755 mmHg 50%
    13:00 +36°C° 0.1 mm 4 mps 755 mmHg 52%
    14:00 +35°C° 0.1 mm 5 mps 754 mmHg 54%
    15:00 +35°C° 0.1 mm 5 mps 754 mmHg 56%
    16:00 +33°C° 0 mm 5 mps 754 mmHg 63%
    17:00 +32°C° 0 mm 5 mps 754 mmHg 70%
    18:00 +29°C° 0 mm 5 mps 754 mmHg 77%
    19:00 +29°C° 0 mm 5 mps 754 mmHg 79%
    20:00 +28°C° 0 mm 5 mps 755 mmHg 81%
    21:00 +28°C° 0 mm 5 mps 755 mmHg 83%
    22:00 +28°C° 0 mm 5 mps 755 mmHg 84%
    23:00 +28°C° 0 mm 5 mps 755 mmHg 85%

    18 November, Monday

    Time Temperature Precipitation Wind Pressure Humidity
    00:00 +27°C° 0 mm 5 mps 755 mmHg 86%
    01:00 +27°C° 0.1 mm 5 mps 755 mmHg 87%
    02:00 +27°C° 0.1 mm 5 mps 754 mmHg 88%
    03:00 +27°C° 0.1 mm 5 mps 754 mmHg 89%
    04:00 +27°C° 0.4 mm 4 mps 755 mmHg 90%
    05:00 +26°C° 0.4 mm 4 mps 755 mmHg 92%
    06:00 +26°C° 0.4 mm 4 mps 756 mmHg 94%
    07:00 +28°C° 0.9 mm 3 mps 756 mmHg 85%
    08:00 +30°C° 0.9 mm 3 mps 757 mmHg 77%
    09:00 +33°C° 0.9 mm 3 mps 757 mmHg 69%
    10:00 +34°C° 0.3 mm 3 mps 757 mmHg 64%
    11:00 +35°C° 0.3 mm 3 mps 756 mmHg 59%
    12:00 +36°C° 0.3 mm 3 mps 756 mmHg 54%
    13:00 +35°C° 0.8 mm 3 mps 755 mmHg 58%
    14:00 +34°C° 0.8 mm 3 mps 755 mmHg 63%
    15:00 +33°C° 0.8 mm 4 mps 754 mmHg 67%
    16:00 +32°C° 0.2 mm 4 mps 755 mmHg 72%
    17:00 +30°C° 0.2 mm 4 mps 755 mmHg 76%
    18:00 +28°C° 0.2 mm 4 mps 755 mmHg 81%
    19:00 +28°C° 0.3 mm 4 mps 755 mmHg 83%
    20:00 +28°C° 0.3 mm 4 mps 756 mmHg 85%
    21:00 +27°C° 0.3 mm 4 mps 756 mmHg 87%
    22:00 +27°C° 0.1 mm 4 mps 756 mmHg 88%
    23:00 +27°C° 0.1 mm 4 mps 756 mmHg 89%

    19 November, Tuesday

    Time Temperature Precipitation Wind Pressure Humidity
    00:00 +26°C° 0.1 mm 3 mps 756 mmHg 90%
    01:00 +26°C° 0 mm 3 mps 756 mmHg 90%
    02:00 +26°C° 0 mm 3 mps 755 mmHg 91%
    03:00 +26°C° 0 mm 3 mps 755 mmHg 91%
    04:00 +26°C° 0.1 mm 2 mps 756 mmHg 91%
    05:00 +26°C° 0.1 mm 2 mps 756 mmHg 92%
    06:00 +26°C° 0.1 mm 2 mps 756 mmHg 92%
    07:00 +28°C° 0.3 mm 2 mps 757 mmHg 84%
    08:00 +30°C° 0.3 mm 2 mps 757 mmHg 76%
    09:00 +32°C° 0.3 mm 2 mps 758 mmHg 67%
    10:00 +33°C° 0.4 mm 3 mps 757 mmHg 64%
    11:00 +34°C° 0.4 mm 3 mps 757 mmHg 61%
    12:00 +35°C° 0.4 mm 3 mps 756 mmHg 57%
    13:00 +35°C° 0.2 mm 3 mps 755 mmHg 59%
    14:00 +34°C° 0.2 mm 4 mps 755 mmHg 60%
    15:00 +34°C° 0.2 mm 4 mps 754 mmHg 61%
    16:00 +33°C° 0 mm 4 mps 755 mmHg 67%
    17:00 +30°C° 0 mm 4 mps 755 mmHg 74%
    18:00 +29°C° 0 mm 4 mps 755 mmHg 80%
    19:00 +28°C° 0 mm 4 mps 755 mmHg 82%
    20:00 +28°C° 0 mm 3 mps 756 mmHg 84%
    21:00 +28°C° 0 mm 3 mps 756 mmHg 86%
    22:00 +27°C° 0 mm 3 mps 756 mmHg 87%
    23:00 +27°C° 0 mm 3 mps 756 mmHg 88%
    Show more